This demonstration page uses our WeatherBlox Daily Observations layout. Learn more.

Left ArrowRight Arrow

47.50024, -111.30081

Hourly Observations for July 12, 2020

Temp ( °F °C ) Dew Point ( °F °C ) Humidity (%) Winds ( mph kmh ) Pressure ( in mb ) Visibility ( mi km ) Precip ( " mm )
12:53 am 00:53 Clear 61 16.1 45 7.2 56 56 undefined N/A 29.83 1010 10 16 0.00 0.00
1:53 am 01:53 Clear 59 15 45 7.2 60 60 SE 7 11 29.81 1009 10 16 0.00 0.00
2:53 am 02:53 Clear 68 20 42 5.6 39 39 SSE 10 17 29.75 1008 10 16 0.00 0.00
3:53 am 03:53 Clear 60 15.6 43 6.1 53 53 SW 10 17 29.76 1008 10 16 0.00 0.00
4:53 am 04:53 Clear 54 12.2 45 7.2 72 72 W 9 15 29.80 1009 10 16 0.00 0.00
5:53 am 05:53 Sunny 58 14.4 43 6.1 58 58 WNW 10 17 29.84 1011 10 16 0.00 0.00
6:53 am 06:53 Sunny 61 16.1 46 7.8 58 58 SSE 7 11 29.84 1011 10 16 0.00 0.00
7:53 am 07:53 Sunny 64 17.8 47 8.3 54 54 SE 6 9 29.84 1010 10 16 0.00 0.00
8:53 am 08:53 Sunny 70 21.1 47 8.3 44 44 S 6 9 29.83 1010 10 16 0.00 0.00
9:53 am 09:53 Sunny 74 23.3 44 6.7 34 34 SW 17 28 29.82 1010 10 16 0.00 0.00
10:53 am 10:53 Sunny 73 22.8 38 3.3 28 28 SW 15 24 29.82 1010 10 16 0.00 0.00
11:53 am 11:53 Sunny 75 23.9 35 1.7 23 23 SW 20 31 29.80 1009 10 16 0.00 0.00
12:53 pm 12:53 Sunny 79 26.1 38 3.3 23 23 WSW 23 37 29.80 1009 10 16 0.00 0.00
1:53 pm 13:53 Sunny 76 24.4 37 2.8 24 24 WSW 25 41 29.79 1009 10 16 0.00 0.00
2:53 pm 14:53 Sunny 77 25 38 3.3 24 24 SW 28 44 29.77 1008 10 16 0.00 0.00
3:53 pm 15:53 Sunny 77 25 37 2.8 24 24 SW 21 33 29.78 1008 10 16 0.00 0.00
4:53 pm 16:53 Sunny 76 24.4 34 1.1 22 22 WSW 24 39 29.79 1009 10 16 0.00 0.00
5:53 pm 17:53 Sunny 75 23.9 37 2.8 25 25 WSW 17 28 29.77 1008 10 16 0.00 0.00
6:53 pm 18:53 Sunny 72 22.2 33 0.6 24 24 W 17 28 29.76 1008 10 16 0.00 0.00
7:53 pm 19:53 Sunny 71 21.7 33 0.6 25 25 W 18 30 29.76 1008 10 16 0.00 0.00
8:53 pm 20:53 Sunny 68 20 29 -1.7 23 23 WSW 16 26 29.76 1008 10 16 0.00 0.00
9:53 pm 21:53 Clear 62 16.7 32 0 32 32 SW 12 19 29.78 1009 10 16 0.00 0.00
10:53 pm 22:53 Clear 61 16.1 32 0 34 34 SW 10 17 29.80 1009 10 16 0.00 0.00
11:53 pm 23:53 Clear 56 13.3 33 0.6 42 42 SW 10 17 29.81 1010 10 16 0.00 0.00

Powered by AerisWeather